Regional Weather Roundup
Issued by NWS

Home | Current Version | Previous Version | Text Only | Print | Product List | Glossary Off
Versions: 1 2 3 4 5 6 7 8 9 10 11 12 13 14 15 16 17 18 19 20 21 22 23 24 25 26 27 28 29 30 31 32 33 34 35 36 37 38 39 40 41 42 43 44 45 46 47 48 49 50

000
ASUS43 KIND 232009
RWRIN

WEATHER ROUNDUP FOR INDIANA
NATIONAL WEATHER SERVICE INDIANAPOLIS IN
400 PM EDT FRI JUN 23 2017

NOTE: "FAIR" INDICATES FEW OR NO CLOUDS BELOW 12,000 FEET WITH NO
SIGNIFICANT WEATHER AND/OR OBSTRUCTIONS TO VISIBILITY.

* - STATION DOES NOT REPORT WEATHER SUCH AS PRECIPITATION OR FOG.

+ - STATION NOT QUALITY CONTROLLED BY THE NATIONAL WEATHER SERVICE.
    USE DATA WITH CAUTION...ESPECIALLY DEWPOINT AND RELATIVE
    HUMIDITY OBSERVATIONS.

INZ001>003-010>013-019-020-232100-
NORTHWEST INDIANA

CITY           SKY/WX    TMP DP  RH WIND       PRES   REMARKS
KNOX *+        CLOUDY    72  46  40 NW6       29.72S
LA PORTE +     CLOUDY    73  60  63 NW7       29.74R
MICHIGAN CITY+ CLOUDY    72  59  64 NW5       29.73F
MONTICELLO +   CLOUDY    73  62  70 N8        29.72S
RENSSELAER +   CLOUDY    73  55  53 N8        29.74R
VALPARAISO     CLOUDY    77  58  51 VRB6      29.74R

$$

LMZ046-743>745-232100-
SOUTHERN LAKE MICHIGAN

STATION/POSITION TIME  TEMP    WIND        PRES    WAVE
                       AIR SEA DIR/SP/G            HT
                 (UTC) (F)     (DEG/KT/KT) (MB)    (FT)
BURNS HARBOR     1940   70      CALM  /  2 1007.1S
MICHIGAN CITY    1940   67     250/  4/  4   N/A
5NW MICH CITY    2000   68 68  270/  2/  4   N/A     1

$$

INZ004-005-014>016-021>024-232100-
NORTH CENTRAL INDIANA

CITY           SKY/WX    TMP DP  RH WIND       PRES   REMARKS
ELKHART        CLOUDY    73  61  64 W12       29.71S
GOSHEN         CLOUDY    73  59  61 NW7       29.70F
LOGANSPORT +   CLOUDY    72  63  73 NW8       29.73S
PERU/GRISSOM   PTSUNNY   73  67  82 N10       29.71S
ROCHESTER +    CLOUDY    73  63  68 NW8       29.73S
SOUTH BEND     CLOUDY    72  60  66 NW8       29.72S
WARSAW +       CLOUDY    72  59  64 NW7       29.72S

$$

INZ006>009-017-018-025>027-232100-
NORTHEAST INDIANA

CITY           SKY/WX    TMP DP  RH WIND       PRES   REMARKS
AUBURN +       CLOUDY    73  64  73 W9        29.70R
FORT WAYNE     CLOUDY    71  65  81 W8        29.70S
HUNTINGTON +   CLOUDY    69  67  93 NW5       29.71S
KENDALLVILLE + CLOUDY   N/A N/A N/A NW6       29.71S

$$

INZ028-029-035-036-043>045-051>053-232100-
WEST CENTRAL INDIANA

CITY           SKY/WX    TMP DP  RH WIND       PRES   REMARKS
CRAWFORDSVL +  DRIZZLE   68  68 100 N10       29.73R
GREENCASTLE +  RAIN      72  70  94 CALM      29.72S
LAFAYETTE      CLOUDY    70  68  93 N3        29.72S
TERRE HAUTE    CLOUDY    76  71  85 CALM      29.71S

$$

INZ030>032-037>040-046>048-054>057-064-065-232100-
CENTRAL INDIANA

CITY           SKY/WX    TMP DP  RH WIND       PRES   REMARKS
ANDERSON       CLOUDY    70  64  83 W9        29.73S
CP ATTERBURY + RAIN      72  64  78 CALM      29.72S
COLUMBUS       CLOUDY    73  70  88 CALM      29.71S
FRANKFORT +    CLOUDY    71  69  92 N9        29.75S FOG
GREENWOOD *+   CLOUDY    71  67  88 NW3       29.72S
INDIANAPOLIS   LGT RAIN  70  69  97 SW3       29.71F
-EAGLE CREEK   CLOUDY    72  68  87 NW6       29.71F
KOKOMO +       CLOUDY    72  66  83 NW8       29.73S
MARION +       CLOUDY    66  64  94 NW8       29.72F FOG
MT COMFORT *+  CLOUDY    68  66  94 W3        29.72F
SHELBYVILLE    LGT RAIN  72  65  78 CALM      29.70F
ZIONSVILLE +   DRIZZLE   68  67  95 NW8       29.73S

$$

INZ033-034-041-042-049-050-058-059-232100-
EAST CENTRAL INDIANA

CITY           SKY/WX    TMP DP  RH WIND       PRES   REMARKS
MUNCIE         CLOUDY    71  67  87 W9        29.71F
RICHMOND +     RAIN      66  64  94 SW6       29.74F

$$

INZ060-061-067>069-081>083-085>088-232100-
SOUTHWEST INDIANA

CITY           SKY/WX    TMP DP  RH WIND       PRES   REMARKS
EVANSVILLE     CLOUDY    77  73  87 N3        29.68S
HUNTINGBURG *+ CLOUDY    73  73 100 CALM      29.70S
WASHINGTON +   CLOUDY    75  73  92 SW5       29.69F

$$

INZ062-063-066-070>080-084-089>092-232100-
SOUTH CENTRAL AND SOUTHEAST INDIANA

CITY           SKY/WX    TMP DP  RH WIND       PRES   REMARKS
BEDFORD +      CLOUDY    73  70  88 W6        29.71R
BLOOMINGTON    LGT RAIN  74  70  87 SW8       29.71S FOG
MADISON *+     CLOUDY    73  72  94 CALM      29.72F
NORTH VERNON + RAIN      72  70  94 CALM      29.72F
SEYMOUR +      RAIN      75  75 100 CALM      29.70F

$$





USA.gov is the U.S. government's official web portal to all federal, state and local government web resources and services.